星链-34140 (STARLINK-34140)

导读

STARLINK-34140是美国SpaceX公司星链星座的一员,于2025年5月21日发射,属于星链低轨卫星互联网项目。这类卫星运行于近地轨道,采用平板设计与氪霍尔推进器,搭载Ku/Ka波段通信载荷,旨在提供全球高速低延迟宽带服务,尤其覆盖地面网络难以到达区域,设计寿命约5-7年,退役后会离轨坠入大气层焚毁,推动全球互联网普及的同时也引发了太空环境相关讨论。

基本信息
目录编号:
64085
目录名称:
STARLINK-34140
国际标识:
2025-107X
轨道中心:
EARTH
卫星名称:
星链-34140
卫星全名:
星链-34140 (STARLINK-34140)
卫星状态:
在轨 (已飞行389 天)
发射日期:
2025-05-21 UTC
国别 :
美国 (US)
星等 :
--
轨道信息
数据来源 国际轨道数据
星历时间: 2026-06-14T00:00:02+0800
9小时前
查看轨道信息
半长轴: 6861.18km
偏心率: 0.0001365
轨道倾角: 43.003°
近地点辐角 267.199°
升交点赤经 19.565°
平近点角 262.609°
近地点: 482.106km
远地点: 483.98km
周期: 94.267分钟
每日圈数: 15.275822
详细信息
固有亮度:
5
最大亮度:
2.5
卫星平台:
Starlink V1.0
覆盖范围:
全球
运营商:
太空探索技术公司
运营商所在国:
美国
制造商(研发单位):
太空探索技术公司
制造商所在国:
美国
使用方式:
暂无
卫星简介
Starlink 计划是 SpaceX 推出的全球卫星互联网项目,通过发射低轨道卫星,为全球尤其是偏远地区提供高速、低延迟的互联网服务。自 2019 年起,Starlink 已部署数千颗卫星,旨在缩小全球数字鸿沟,推动互联网普及。该项目还为军事、航空等行业提供通信支持,带来广泛经济效益。
2D轨道图
3D轨道图
轨道高度分析图
轨道倾角分析图
轨道综合分析图
查看轨道综合分析图